Voltar ao catálogo

QPS-SAR-13

AtivoVLEO
NORAD 100243·PAYLOAD·🇯🇵 Japan

Lançado Aug 6, 2026 de Rocket Lab Launch Complex 1

Loading…

Próximas Passagens (próximas 24 horas)

TLE

AtualizadoSource: Space-Track

Época: Sep 14, 2026, 03:59 UTC

1 A0243U 26180A   26257.16641640  .00001518  00000-0  14364-3 0  9992
2 A0243  42.0017 176.6277 0007886 171.9573 188.1379 14.97396097  5820

Acompanhe QPS-SAR-13 em tempo real com AllMySat

Download on the App Store